Regional Weather Roundup
Issued by NWS

Home | Current Version | Previous Version | Text Only | Print | Product List | Glossary Off
Versions: 1 2 3 4 5 6 7 8 9 10 11 12 13 14 15 16 17 18 19 20 21 22 23 24 25 26 27 28 29 30 31 32 33 34 35 36 37 38 39 40 41 42 43 44 45 46 47 48 49 50

000
ASUS43 KLOT 210210
RWRIL

ILLINOIS REGIONAL WEATHER ROUNDUP
NATIONAL WEATHER SERVICE CHICAGO/ROMEOVILLE IL
900 PM CDT SUN APR 20 2014

NOTE: "FAIR" INDICATES FEW OR NO CLOUDS BELOW 12,000 FEET WITH NO
SIGNIFICANT WEATHER AND/OR OBSTRUCTIONS TO VISIBILITY.

* THESE STATIONS ARE NOT UNDER NWS QUALITY CONTROL. THEY ALSO MAY NOT
  REPORT WEATHER SUCH AS PRECIPITATION OR FOG.

ILZ001-002-007-009-015-016-024-210300-
NORTHWEST ILLINOIS

CITY           SKY/WX    TMP DP  RH WIND       PRES   REMARKS
MOLINE         MOCLDY    72  45  37 S8        29.98S
STERLING*      PTCLDY    68  43  40 S5        30.00S
SAVANNA*       PTCLDY    65  45  49 SE6       29.98S
$$

ILZ003-004-008-010-011-017-018-210300-
NORTH CENTRAL ILLINOIS

CITY           SKY/WX    TMP DP  RH WIND       PRES   REMARKS
ROCKFORD       MOCLDY    67  42  40 S9        30.02S
FREEPORT*      PTCLDY    64  46  52 S7        30.02S
ROCHELLE*      PTCLDY    61  43  50 S9        30.02F
DE KALB*       PTCLDY    63  42  46 SE9       30.04S
PERU*          PTCLDY    69  42  37 CALM      30.03S
$$

ILZ005-006-012>014-019>023-210300-
NORTHEAST ILLINOIS

CITY           SKY/WX    TMP DP  RH WIND       PRES   REMARKS
CHICAGO-OHARE  MOCLDY    64  40  41 S9        30.04S
CHICAGO-MIDWAY MOCLDY    72  40  31 SE7       30.05S
AURORA         PTCLDY    62  42  47 SE6       30.04S
LANSING*       PTCLDY    65  37  35 SE6       30.06F
JOLIET*        PTCLDY    60  42  52 CALM      30.06S
WAUKEGAN       MOCLDY    60  37  42 SE12      30.02F
DUPAGE AIRPORT PTCLDY    63  42  46 SE6       30.03S
KANKAKEE*      PTCLDY    67  42  40 S8        30.07S
WHEELING       PTCLDY    62  41  46 SE5       30.04F
MORRIS*        PTCLDY    68  33  27 S7        30.04S
ROMEOVILLE*    PTCLDY    64  39  40 SE8       30.04F
NORTHERLY ISL    N/A     53  42  66 SE1         N/A
$$

LMZ740>746-210300-
SOUTHERN LAKE MICHIGAN

STATION/POSITION SKY/WX   TEMP    WIND        PRES    VSBY  WAVE
                          AIR SEA DIR/SP/G                  HT/PER
                          (F)     (DEG/KT/KT) (MB)    (MI)  (FT/S)
WAUKEGAN HARBOR            51     190/ 14/ 15 1017.9S
HARRISON CRIB              53     170/ 10/ 12   N/A
BURNHAM HARBOR             53     150/  3       N/A
CALUMET HARBOR             60      90/  4/  6 1018.5F
MICHIGAN CITY              70     130/  8/  9   N/A
$$

ILZ025>027-034>036-040-047-049-050-058-095>099-210300-
WEST-CENTRAL ILLINOIS

CITY           SKY/WX    TMP DP  RH WIND       PRES   REMARKS
QUINCY         MOCLDY    70  46  42 SE5       30.01S
GALESBURG*     CLOUDY    67  48  50 SE6       30.01S
MACOMB*        MOCLDY    67  44  43 S7        30.03S
JACKSONVILLE*  PTCLDY    68  43  39 SE8       30.05S
PITTSFIELD*    PTCLDY    70  41  34 SE8       30.04R
$$

ILZ028>032-037-038-041>044-048-051>054-059>061-210300-
CENTRAL ILLINOIS

CITY           SKY/WX    TMP DP  RH WIND       PRES   REMARKS
PONTIAC        PTCLDY    70  41  35 S12       30.05S
BLOOMINGTON    PTCLDY    62  41  46 S10       30.08S
DECATUR        PTCLDY    64  43  46 S6        30.08S
PEORIA         MOCLDY    70  41  34 S10       30.03S
LACON*         PTCLDY    70  43  37 S9        30.02S
LINCOLN*       PTCLDY    67  42  40 S8        30.05S
SPRINGFIELD    PTCLDY    70  42  36 SE12      30.06S
TAYLORVILLE    PTCLDY    64  43  45 SE6       30.07S
$$

ILZ033-039-045-046-055>057-062-063-210300-
EAST-CENTRAL ILLINOIS

CITY           SKY/WX    TMP DP  RH WIND       PRES   REMARKS
CHAMPAIGN      PTCLDY    63  42  46 SE9       30.09S
RANTOUL*       PTCLDY    64  41  42 CALM      30.10S
MATTOON        PTCLDY    66  44  45 S6        30.09S
PARIS*         PTCLDY    59  44  57 CALM      30.11S
$$

ILZ079-100>102-210300-
SOUTHWEST ILLINOIS

CITY           SKY/WX    TMP DP  RH WIND       PRES   REMARKS
BELLEVILLE     PTCLDY    66  47  50 SE6       30.05S
CAHOKIA*       MOCLDY    69  46  43 SE9       30.05R
SPARTA*        MOCLDY    68  45  42 S6        30.07S
$$

ILZ064>066-069>071-074>076-080>082-084>086-088>090-092>094-210300-
SOUTH-CENTRAL ILLINOIS

CITY           SKY/WX    TMP DP  RH WIND       PRES   REMARKS
CARBONDALE     PTCLDY    65  44  46 SE6       30.08S
CAIRO*         PTCLDY    66  49  54 CALM      30.10R
MARION         PTCLDY    66  45  45 SE3       30.10S
MT. VERNON     PTCLDY    55  43  62 CALM      30.10S
CENTRALIA*       N/A     64  45  49 CALM      30.08S
SALEM*         PTCLDY    66  46  47 SE3       30.09S
METROPOLIS*    PTCLDY    63  44  50 CALM      30.09S
$$

ILZ067-068-072-073-078-083-087-091-210300-
SOUTHEAST ILLINOIS

CITY           SKY/WX    TMP DP  RH WIND       PRES   REMARKS
FAIRFIELD*     PTCLDY    66  48  52 CALM      30.10S
HARRISBURG*    CLEAR     65  49  54 CALM      30.11S
ROBINSON*      CLEAR     59  49  69 CALM      30.11F
CARMI*         PTCLDY    61  54  77 SE5       30.10S
$$

ABBREVIATIONS USED IN REMARKS
   TC - TEMPERATURE IN CELSIUS
  WCI - WIND CHILL INDEX
   HX - HEAT INDEX
  VSB - VISIBILITY
$$




USA.gov is the U.S. government's official web portal to all federal, state and local government web resources and services.